User: anonymous   Login
Location: Unspecified
(0.0000°N, 0.0000°E)
Time: 09:37:05
(UTC+00:00)
Language:

QBEE50-LTU-OC - Orbit

View from above orbital plane
View from above orbital plane
View from above satellite
View from above satellite

Ground track
Ground track

The orbit data is extracted from the following two-line orbital elements,

1 42708U 98067LR  19057.60728726  .12539676  12620-4  24972-3 0  9992
2 42708  51.6043 110.2979 0003995 293.2873  66.7735 16.46993420102181
Epoch (UTC): 26 February 2019 14:34:29
Eccentricity: 0.0003995
inclination: 51.6043°
perigee height: 144 km
apogee height: 150 km
right ascension of ascending node: 110.2979°
argument of perigee: 293.2873°
revolutions per day: 16.46993420
mean anomaly at epoch: 66.7735°
orbit number at epoch: 10218

The dashed part of the orbit path shows where the satellite is in the earth's shadow,  

DLR